This is the latest recevied weather packets stored in our database for station/object W1RCY. If no packets are shown the sender has not sent any weather packets the latest 10 day(s).
| Time | Temp. | Humidity | Pressure | Rain* | Wind** | Luminosity | Snow |
|---|---|---|---|---|---|---|---|
| 1777466972 | 8.33° C | 83% | 1016.7 hPa | 0 mm | - | 219 W/m² | - |
| 1777466670 | 7.78° C | 84% | 1017 hPa | 0 mm | - | 185 W/m² | - |
| 1777466367 | 7.78° C | 84% | 1017 hPa | 0 mm | - | 160 W/m² | - |
| 1777466063 | 7.78° C | 84% | 1017.2 hPa | 0 mm | - | 141 W/m² | - |
| 1777465760 | 7.78° C | 84% | 1017.4 hPa | 0 mm | - | 123 W/m² | - |
| 1777465456 | 7.78° C | 84% | 1017.3 hPa | 0 mm | - | 128 W/m² | - |
| 1777465154 | 7.78° C | 84% | 1017.4 hPa | 0 mm | - | 119 W/m² | - |
| 1777464850 | 7.78° C | 85% | 1017.4 hPa | 0 mm | - | 119 W/m² | - |
| 1777464546 | 7.78° C | 85% | 1017.3 hPa | 0 mm | - | 127 W/m² | - |
| 1777464241 | 7.78° C | 86% | 1017.4 hPa | 0 mm | - | 108 W/m² | - |
| 1777463936 | 7.78° C | 85% | 1017.3 hPa | 0 mm | - | 103 W/m² | - |
| 1777463632 | 7.22° C | 86% | 1017.3 hPa | 0 mm | - | 96 W/m² | - |
| 1777463327 | 7.22° C | 86% | 1017.2 hPa | 0 mm | - | 91 W/m² | - |
| 1777463024 | 7.22° C | 86% | 1017.2 hPa | 0 mm | - | 85 W/m² | - |
| 1777462719 | 7.22° C | 87% | 1017.1 hPa | 0 mm | - | 84 W/m² | - |
| 1777462414 | 6.67° C | 88% | 1017.2 hPa | 0 mm | - | 72 W/m² | - |
| 1777462112 | 6.67° C | 88% | 1017 hPa | 0 mm | - | 73 W/m² | - |
| 1777461808 | 6.67° C | 88% | 1017 hPa | 0 mm | - | 59 W/m² | - |
| 1777461504 | 6.67° C | 88% | 1017.1 hPa | 0 mm | - | 50 W/m² | - |
| 1777461200 | 6.67° C | 88% | 1017 hPa | 0 mm | - | 48 W/m² | - |
| 1777460896 | 6.67° C | 88% | 1017.1 hPa | 0 mm | - | 46 W/m² | - |
| 1777460591 | 6.67° C | 88% | 1017.1 hPa | 0 mm | - | 41 W/m² | - |
| 1777460287 | 6.67° C | 88% | 1016.9 hPa | 0 mm | - | 36 W/m² | - |
| 1777459985 | 6.67° C | 88% | 1016.9 hPa | 0 mm | - | 31 W/m² | - |
| 1777459681 | 6.67° C | 88% | 1016.9 hPa | 0 mm | - | 26 W/m² | - |
* Rain latest hour (hover to see other rain measurements)
** Current wind speed in m/s (hover to see current wind gust speed)